Погода в Паулисте

Бразилия     7°56′37″S   34°51′57″W
темп.,
°C
ветер,
м/с
пор.,
м/с
влажн.,
%
обл.,
%
осадки,
мм/ч
давл.,
гПа
погр.,
м
27 февраля, сб
сб2700:00+27в447849 2.0 1011503
03:00+27в237159 4.4 1010468
06:00+27в226840 0.1 1012483
09:00+28в336824 0.1 1013879
12:00+28в44681 0.0 1011763
15:00+28в456814 0.0 1009886
18:00+27в557391 0.0 1010967
21:00+27в567658 0.3 1011792
28 февраля, вс
вс2800:00+27в447781 5.6 1010398
03:00+27вюв227386 10.3 1009235
06:00+27вюв347324 1.3 1010588
09:00+27вюв447046 2.0 1012662
12:00+28вюв557178 0.4 1010806
15:00+28вюв557485 0.4 1008847
18:00+27вюв567518 0.1 1009793
21:00+27вюв45769 0.1 1010735
1 марта, пн
пн100:00+27вюв44760 1.4 1009539
03:00+27в347431 4.8 1008558
06:00+27в567593 1.4 1009627
09:00+27в567393 4.6 1010613
12:00+28вюв787461 3.3 1010724
15:00+27вюв9107651 8.4 1008775
18:00+27вюв787479 0.5 10091003
21:00+27вюв677652 0.6 1011921
2 марта, вт
вт200:00+27всв677884 4.1 1010530
03:00+27всв567879 9.1 1009430
06:00+27св457761 2.0 1010591
09:00+28всв237031 2.1 1012765
12:00+27в45720 0.9 1011617
15:00+28в55720 0.9 1010844
18:00+28вюв45730 0.0 1011786
21:00+27в567619 2.2 1013715
3 марта, ср
ср300:00+27всв457812 0.6 1013661
03:00+27всв33776 1.7 1011694
06:00+27в457971 0.8 1013711
09:00+27в457783 1.4 1014738
12:00+27вюв457679 0.3 1014738
15:00+27вюв557755 0.6 1012775
18:00+27вюв568030 0.3 1013694
21:00+26вюв568221 1.4 1014657